iso_date,epoch_date,Year,Hour,Min,DOY,POS_DOY,Lat,Lon,BP,Ts,Ta,has_bp,has_ts,has_ta,BuoyID,Buoy_Type,Buoy_Owner,Logistics,Hemisphere
2018-02-05T06:44:38Z,1517813078,2018,6,45,36.281,36.281,-70.0034,-162.2232,977.0,0.07,-999.0,yes,yes,no,300234063898840,BD2GI,AOML,ARAON,South
2018-02-05T07:00:28Z,1517814029,2018,7,0,36.292,36.292,-70.0038,-162.22,976.8,0.11,-999.0,yes,yes,no,300234063898840,BD2GI,AOML,ARAON,South
2018-02-05T07:59:31Z,1517817571,2018,8,0,36.333,36.333,-70.0036,-162.2028,976.3,0.04,-999.0,yes,yes,no,300234063898840,BD2GI,AOML,ARAON,South
2018-02-05T09:00:00Z,1517821200,2018,9,0,36.375,36.375,-70.0002,-162.1898,975.8,0.0,-999.0,yes,yes,no,300234063898840,BD2GI,AOML,ARAON,South
2018-02-05T10:00:28Z,1517824829,2018,10,0,36.417,36.417,-69.9958,-162.1814,975.8,0.04,-999.0,yes,yes,no,300234063898840,BD2GI,AOML,ARAON,South
2018-02-05T10:59:31Z,1517828371,2018,11,0,36.458,36.458,-69.992,-162.18,976.3,0.0,-999.0,yes,yes,no,300234063898840,BD2GI,AOML,ARAON,South
2018-02-05T12:00:00Z,1517832000,2018,12,0,36.5,36.5,-69.9882,-162.1854,977.5,0.0,-999.0,yes,yes,no,300234063898840,BD2GI,AOML,ARAON,South
2018-02-05T13:00:28Z,1517835629,2018,13,0,36.542,36.542,-69.9866,-162.1932,978.3,0.0,-999.0,yes,yes,no,300234063898840,BD2GI,AOML,ARAON,South
2018-02-05T13:59:31Z,1517839171,2018,14,0,36.583,36.583,-69.9872,-162.2014,978.9,0.0,-999.0,yes,yes,no,300234063898840,BD2GI,AOML,ARAON,South
2018-02-05T15:00:00Z,1517842800,2018,15,0,36.625,36.625,-69.99,-162.205,979.8,0.0,-999.0,yes,yes,no,300234063898840,BD2GI,AOML,ARAON,South
2018-02-05T16:00:28Z,1517846429,2018,16,0,36.667,36.667,-69.9936,-162.2052,980.1,0.04,-999.0,yes,yes,no,300234063898840,BD2GI,AOML,ARAON,South
2018-02-05T16:59:31Z,1517849971,2018,17,0,36.708,36.708,-69.9976,-162.2002,980.7,0.04,-999.0,yes,yes,no,300234063898840,BD2GI,AOML,ARAON,South
2018-02-05T18:00:00Z,1517853600,2018,18,0,36.75,36.75,-70.0018,-162.1894,980.9,0.04,-999.0,yes,yes,no,300234063898840,BD2GI,AOML,ARAON,South
2018-02-05T19:00:28Z,1517857229,2018,19,0,36.792,36.792,-70.004,-162.171,981.3,0.04,-999.0,yes,yes,no,300234063898840,BD2GI,AOML,ARAON,South
2018-02-05T19:59:31Z,1517860771,2018,20,0,36.833,36.833,-70.0046,-162.1512,981.4,0.04,-999.0,yes,yes,no,300234063898840,BD2GI,AOML,ARAON,South
2018-02-05T21:00:00Z,1517864400,2018,21,0,36.875,36.875,-70.0024,-162.1316,981.1,0.07,-999.0,yes,yes,no,300234063898840,BD2GI,AOML,ARAON,South
2018-02-05T22:00:28Z,1517868029,2018,22,0,36.917,36.917,-69.9982,-162.1168,980.6,0.07,-999.0,yes,yes,no,300234063898840,BD2GI,AOML,ARAON,South
2018-02-05T22:59:31Z,1517871571,2018,23,0,36.958,36.958,-69.9936,-162.1114,979.6,0.11,-999.0,yes,yes,no,300234063898840,BD2GI,AOML,ARAON,South
2018-02-06T00:00:00Z,1517875200,2018,0,0,37.0,37.0,-69.9896,-162.1134,978.2,0.11,-999.0,yes,yes,no,300234063898840,BD2GI,AOML,ARAON,South
2018-02-06T01:00:28Z,1517878829,2018,1,0,37.042,37.042,-69.9872,-162.122,976.7,0.11,-999.0,yes,yes,no,300234063898840,BD2GI,AOML,ARAON,South
2018-02-06T01:59:31Z,1517882371,2018,2,0,37.083,37.083,-69.9874,-162.1364,975.0,0.11,-999.0,yes,yes,no,300234063898840,BD2GI,AOML,ARAON,South
2018-02-06T03:00:00Z,1517886000,2018,3,0,37.125,37.125,-69.99,-162.149,973.2,0.11,-999.0,yes,yes,no,300234063898840,BD2GI,AOML,ARAON,South
2018-02-06T04:00:28Z,1517889629,2018,4,0,37.167,37.167,-69.995,-162.1574,971.3,0.11,-999.0,yes,yes,no,300234063898840,BD2GI,AOML,ARAON,South
2018-02-06T04:59:31Z,1517893171,2018,5,0,37.208,37.208,-70.002,-162.161,970.0,0.11,-999.0,yes,yes,no,300234063898840,BD2GI,AOML,ARAON,South
2018-02-06T06:00:00Z,1517896800,2018,6,0,37.25,37.25,-70.009,-162.1574,968.9,0.07,-999.0,yes,yes,no,300234063898840,BD2GI,AOML,ARAON,South
2018-02-06T07:00:28Z,1517900429,2018,7,0,37.292,37.292,-70.0142,-162.1428,968.1,0.04,-999.0,yes,yes,no,300234063898840,BD2GI,AOML,ARAON,South
2018-02-06T07:59:31Z,1517903971,2018,8,0,37.333,37.333,-70.017,-162.1222,967.6,0.0,-999.0,yes,yes,no,300234063898840,BD2GI,AOML,ARAON,South
2018-02-06T09:00:00Z,1517907600,2018,9,0,37.375,37.375,-70.0168,-162.0978,967.9,0.07,-999.0,yes,yes,no,300234063898840,BD2GI,AOML,ARAON,South
2018-02-06T10:00:28Z,1517911229,2018,10,0,37.417,37.417,-70.0122,-162.0772,968.4,0.07,-999.0,yes,yes,no,300234063898840,BD2GI,AOML,ARAON,South
2018-02-06T10:59:31Z,1517914771,2018,11,0,37.458,37.458,-70.007,-162.0644,968.8,0.07,-999.0,yes,yes,no,300234063898840,BD2GI,AOML,ARAON,South
2018-02-06T12:00:00Z,1517918400,2018,12,0,37.5,37.5,-70.001,-162.0566,969.0,0.07,-999.0,yes,yes,no,300234063898840,BD2GI,AOML,ARAON,South
2018-02-06T13:00:28Z,1517922029,2018,13,0,37.542,37.542,-69.9958,-162.0546,969.1,0.07,-999.0,yes,yes,no,300234063898840,BD2GI,AOML,ARAON,South
2018-02-06T13:59:31Z,1517925571,2018,14,0,37.583,37.583,-69.9924,-162.0588,968.9,0.07,-999.0,yes,yes,no,300234063898840,BD2GI,AOML,ARAON,South
2018-02-06T15:00:00Z,1517929200,2018,15,0,37.625,37.625,-69.9926,-162.0678,969.1,0.07,-999.0,yes,yes,no,300234063898840,BD2GI,AOML,ARAON,South
2018-02-06T16:00:28Z,1517932829,2018,16,0,37.667,37.667,-69.992,-162.0768,969.6,0.07,-999.0,yes,yes,no,300234063898840,BD2GI,AOML,ARAON,South
2018-02-06T16:59:31Z,1517936371,2018,17,0,37.708,37.708,-69.9946,-162.0824,969.5,0.07,-999.0,yes,yes,no,300234063898840,BD2GI,AOML,ARAON,South
2018-02-06T18:00:00Z,1517940000,2018,18,0,37.75,37.75,-69.9998,-162.0858,969.6,0.07,-999.0,yes,yes,no,300234063898840,BD2GI,AOML,ARAON,South
2018-02-06T19:00:28Z,1517943629,2018,19,0,37.792,37.792,-70.0062,-162.0762,969.7,0.07,-999.0,yes,yes,no,300234063898840,BD2GI,AOML,ARAON,South
2018-02-06T19:59:31Z,1517947171,2018,20,0,37.833,37.833,-70.011,-162.0644,969.5,0.07,-999.0,yes,yes,no,300234063898840,BD2GI,AOML,ARAON,South
2018-02-06T21:00:00Z,1517950800,2018,21,0,37.875,37.875,-70.0144,-162.0434,969.4,0.11,-999.0,yes,yes,no,300234063898840,BD2GI,AOML,ARAON,South
2018-02-06T22:00:28Z,1517954429,2018,22,0,37.917,37.917,-70.014,-162.0224,969.8,0.11,-999.0,yes,yes,no,300234063898840,BD2GI,AOML,ARAON,South
2018-02-06T22:59:31Z,1517957971,2018,23,0,37.958,37.958,-70.0112,-162.0044,969.8,0.11,-999.0,yes,yes,no,300234063898840,BD2GI,AOML,ARAON,South
2018-02-07T00:00:00Z,1517961600,2018,0,0,38.0,38.0,-70.0068,-161.9912,969.4,0.14,-999.0,yes,yes,no,300234063898840,BD2GI,AOML,ARAON,South
2018-02-07T01:00:28Z,1517965229,2018,1,0,38.042,38.042,-70.001,-161.988,968.9,0.14,-999.0,yes,yes,no,300234063898840,BD2GI,AOML,ARAON,South
2018-02-07T01:59:31Z,1517968771,2018,2,0,38.083,38.083,-69.9956,-161.9956,968.6,0.14,-999.0,yes,yes,no,300234063898840,BD2GI,AOML,ARAON,South
2018-02-07T03:00:00Z,1517972400,2018,3,0,38.125,38.125,-69.9926,-162.0102,968.3,0.14,-999.0,yes,yes,no,300234063898840,BD2GI,AOML,ARAON,South
2018-02-07T04:00:28Z,1517976029,2018,4,0,38.167,38.167,-69.9928,-162.0284,967.8,0.14,-999.0,yes,yes,no,300234063898840,BD2GI,AOML,ARAON,South
2018-02-07T04:59:31Z,1517979571,2018,5,0,38.208,38.208,-69.9966,-162.0446,967.5,0.14,-999.0,yes,yes,no,300234063898840,BD2GI,AOML,ARAON,South
2018-02-07T06:00:00Z,1517983200,2018,6,0,38.25,38.25,-70.002,-162.0542,967.3,0.14,-999.0,yes,yes,no,300234063898840,BD2GI,AOML,ARAON,South
2018-02-07T07:00:28Z,1517986829,2018,7,0,38.292,38.292,-70.0082,-162.0544,967.4,0.14,-999.0,yes,yes,no,300234063898840,BD2GI,AOML,ARAON,South
2018-02-07T07:59:31Z,1517990371,2018,8,0,38.333,38.333,-70.0138,-162.0454,967.4,0.14,-999.0,yes,yes,no,300234063898840,BD2GI,AOML,ARAON,South
2018-02-07T09:00:00Z,1517994000,2018,9,0,38.375,38.375,-70.0174,-162.0298,967.4,0.14,-999.0,yes,yes,no,300234063898840,BD2GI,AOML,ARAON,South
2018-02-07T10:00:28Z,1517997629,2018,10,0,38.417,38.417,-70.0178,-162.013,967.4,0.11,-999.0,yes,yes,no,300234063898840,BD2GI,AOML,ARAON,South
2018-02-07T10:59:31Z,1518001171,2018,11,0,38.458,38.458,-70.0148,-161.9978,967.3,0.11,-999.0,yes,yes,no,300234063898840,BD2GI,AOML,ARAON,South
2018-02-07T12:00:00Z,1518004800,2018,12,0,38.5,38.5,-70.0098,-161.9866,967.4,0.11,-999.0,yes,yes,no,300234063898840,BD2GI,AOML,ARAON,South
2018-02-07T13:00:28Z,1518008429,2018,13,0,38.542,38.542,-70.0032,-161.9852,967.8,0.11,-999.0,yes,yes,no,300234063898840,BD2GI,AOML,ARAON,South
2018-02-07T13:59:31Z,1518011971,2018,14,0,38.583,38.583,-69.997,-161.9948,968.6,0.14,-999.0,yes,yes,no,300234063898840,BD2GI,AOML,ARAON,South
2018-02-07T15:00:00Z,1518015600,2018,15,0,38.625,38.625,-69.9926,-162.0092,969.1,0.11,-999.0,yes,yes,no,300234063898840,BD2GI,AOML,ARAON,South
2018-02-07T16:00:28Z,1518019229,2018,16,0,38.667,38.667,-69.9906,-162.0262,969.7,0.14,-999.0,yes,yes,no,300234063898840,BD2GI,AOML,ARAON,South
2018-02-07T16:59:31Z,1518022771,2018,17,0,38.708,38.708,-69.9924,-162.0488,970.2,0.14,-999.0,yes,yes,no,300234063898840,BD2GI,AOML,ARAON,South
2018-02-07T18:00:00Z,1518026400,2018,18,0,38.75,38.75,-69.997,-162.0634,970.5,0.14,-999.0,yes,yes,no,300234063898840,BD2GI,AOML,ARAON,South
2018-02-07T19:00:28Z,1518030029,2018,19,0,38.792,38.792,-70.0022,-162.068,970.9,0.14,-999.0,yes,yes,no,300234063898840,BD2GI,AOML,ARAON,South
2018-02-07T19:59:31Z,1518033571,2018,20,0,38.833,38.833,-70.0066,-162.0652,971.7,0.14,-999.0,yes,yes,no,300234063898840,BD2GI,AOML,ARAON,South
2018-02-07T21:00:00Z,1518037200,2018,21,0,38.875,38.875,-70.0078,-162.0562,972.1,0.11,-999.0,yes,yes,no,300234063898840,BD2GI,AOML,ARAON,South
2018-02-07T22:00:28Z,1518040829,2018,22,0,38.917,38.917,-70.0068,-162.048,972.4,0.11,-999.0,yes,yes,no,300234063898840,BD2GI,AOML,ARAON,South
2018-02-07T22:59:31Z,1518044371,2018,23,0,38.958,38.958,-70.003,-162.0406,972.6,0.11,-999.0,yes,yes,no,300234063898840,BD2GI,AOML,ARAON,South
2018-02-08T00:00:00Z,1518048000,2018,0,0,39.0,39.0,-69.9982,-162.0342,972.6,0.11,-999.0,yes,yes,no,300234063898840,BD2GI,AOML,ARAON,South
2018-02-08T01:00:28Z,1518051629,2018,1,0,39.042,39.042,-69.9922,-162.0362,972.4,0.11,-999.0,yes,yes,no,300234063898840,BD2GI,AOML,ARAON,South
2018-02-08T01:59:31Z,1518055171,2018,2,0,39.083,39.083,-69.9858,-162.0462,972.4,0.11,-999.0,yes,yes,no,300234063898840,BD2GI,AOML,ARAON,South
2018-02-08T03:00:00Z,1518058800,2018,3,0,39.125,39.125,-69.9806,-162.0614,972.1,0.11,-999.0,yes,yes,no,300234063898840,BD2GI,AOML,ARAON,South
2018-02-08T04:00:28Z,1518062429,2018,4,0,39.167,39.167,-69.9784,-162.0792,971.8,0.11,-999.0,yes,yes,no,300234063898840,BD2GI,AOML,ARAON,South
2018-02-08T04:59:31Z,1518065971,2018,5,0,39.208,39.208,-69.9792,-162.0946,971.6,0.11,-999.0,yes,yes,no,300234063898840,BD2GI,AOML,ARAON,South
2018-02-08T06:00:00Z,1518069600,2018,6,0,39.25,39.25,-69.9818,-162.1044,971.5,0.11,-999.0,yes,yes,no,300234063898840,BD2GI,AOML,ARAON,South
2018-02-08T07:00:28Z,1518073229,2018,7,0,39.292,39.292,-69.9842,-162.1046,971.4,0.07,-999.0,yes,yes,no,300234063898840,BD2GI,AOML,ARAON,South
2018-02-08T07:59:31Z,1518076771,2018,8,0,39.333,39.333,-69.9856,-162.1022,971.3,0.07,-999.0,yes,yes,no,300234063898840,BD2GI,AOML,ARAON,South
2018-02-08T09:00:00Z,1518080400,2018,9,0,39.375,39.375,-69.9858,-162.0956,971.3,0.07,-999.0,yes,yes,no,300234063898840,BD2GI,AOML,ARAON,South
2018-02-08T10:00:28Z,1518084029,2018,10,0,39.417,39.417,-69.9846,-162.0858,971.3,0.07,-999.0,yes,yes,no,300234063898840,BD2GI,AOML,ARAON,South
2018-02-08T10:59:31Z,1518087571,2018,11,0,39.458,39.458,-69.9822,-162.075,971.3,0.07,-999.0,yes,yes,no,300234063898840,BD2GI,AOML,ARAON,South
2018-02-08T12:00:00Z,1518091200,2018,12,0,39.5,39.5,-69.9778,-162.067,971.3,0.04,-999.0,yes,yes,no,300234063898840,BD2GI,AOML,ARAON,South
2018-02-08T13:00:28Z,1518094829,2018,13,0,39.542,39.542,-69.9728,-162.0626,971.2,0.04,-999.0,yes,yes,no,300234063898840,BD2GI,AOML,ARAON,South
2018-02-08T13:59:31Z,1518098371,2018,14,0,39.583,39.583,-69.9672,-162.065,971.1,0.04,-999.0,yes,yes,no,300234063898840,BD2GI,AOML,ARAON,South
2018-02-08T15:00:00Z,1518102000,2018,15,0,39.625,39.625,-69.9632,-162.071,971.0,0.04,-999.0,yes,yes,no,300234063898840,BD2GI,AOML,ARAON,South
2018-02-08T16:00:28Z,1518105629,2018,16,0,39.667,39.667,-69.9606,-162.0802,971.1,0.04,-999.0,yes,yes,no,300234063898840,BD2GI,AOML,ARAON,South
2018-02-08T16:59:31Z,1518109171,2018,17,0,39.708,39.708,-69.9598,-162.0896,971.4,0.04,-999.0,yes,yes,no,300234063898840,BD2GI,AOML,ARAON,South
2018-02-08T18:00:00Z,1518112800,2018,18,0,39.75,39.75,-69.9608,-162.096,971.5,0.04,-999.0,yes,yes,no,300234063898840,BD2GI,AOML,ARAON,South
2018-02-08T19:00:28Z,1518116429,2018,19,0,39.792,39.792,-69.9628,-162.098,971.8,0.0,-999.0,yes,yes,no,300234063898840,BD2GI,AOML,ARAON,South
2018-02-08T19:59:31Z,1518119971,2018,20,0,39.833,39.833,-69.9642,-162.0952,972.0,0.0,-999.0,yes,yes,no,300234063898840,BD2GI,AOML,ARAON,South
2018-02-08T21:00:00Z,1518123600,2018,21,0,39.875,39.875,-69.965,-162.0878,972.1,0.0,-999.0,yes,yes,no,300234063898840,BD2GI,AOML,ARAON,South
2018-02-08T22:00:28Z,1518127229,2018,22,0,39.917,39.917,-69.9648,-162.0816,972.7,0.0,-999.0,yes,yes,no,300234063898840,BD2GI,AOML,ARAON,South
2018-02-08T22:59:31Z,1518130771,2018,23,0,39.958,39.958,-69.963,-162.0748,973.1,0.04,-999.0,yes,yes,no,300234063898840,BD2GI,AOML,ARAON,South
2018-02-09T00:00:00Z,1518134400,2018,0,0,40.0,40.0,-69.9608,-162.0672,973.3,0.04,-999.0,yes,yes,no,300234063898840,BD2GI,AOML,ARAON,South
2018-02-09T01:00:28Z,1518138029,2018,1,0,40.042,40.042,-69.9572,-162.06,973.6,0.04,-999.0,yes,yes,no,300234063898840,BD2GI,AOML,ARAON,South
2018-02-09T01:59:31Z,1518141571,2018,2,0,40.083,40.083,-69.955,-162.059,974.1,0.04,-999.0,yes,yes,no,300234063898840,BD2GI,AOML,ARAON,South
2018-02-09T03:00:00Z,1518145200,2018,3,0,40.125,40.125,-69.95,-162.0588,974.5,0.04,-999.0,yes,yes,no,300234063898840,BD2GI,AOML,ARAON,South
2018-02-09T04:00:28Z,1518148829,2018,4,0,40.167,40.167,-69.946,-162.062,975.1,0.04,-999.0,yes,yes,no,300234063898840,BD2GI,AOML,ARAON,South
2018-02-09T04:59:31Z,1518152371,2018,5,0,40.208,40.208,-69.9418,-162.0682,975.6,0.04,-999.0,yes,yes,no,300234063898840,BD2GI,AOML,ARAON,South
2018-02-09T06:00:00Z,1518156000,2018,6,0,40.25,40.25,-69.9394,-162.0778,976.3,0.04,-999.0,yes,yes,no,300234063898840,BD2GI,AOML,ARAON,South
2018-02-09T07:00:28Z,1518159629,2018,7,0,40.292,40.292,-69.9386,-162.0858,977.1,0.0,-999.0,yes,yes,no,300234063898840,BD2GI,AOML,ARAON,South
2018-02-09T07:59:31Z,1518163171,2018,8,0,40.333,40.333,-69.9382,-162.089,977.9,0.0,-999.0,yes,yes,no,300234063898840,BD2GI,AOML,ARAON,South
2018-02-09T09:00:00Z,1518166800,2018,9,0,40.375,40.375,-69.9378,-162.092,978.3,0.0,-999.0,yes,yes,no,300234063898840,BD2GI,AOML,ARAON,South
2018-02-09T10:00:28Z,1518170429,2018,10,0,40.417,40.417,-69.9372,-162.0904,979.4,0.0,-999.0,yes,yes,no,300234063898840,BD2GI,AOML,ARAON,South
2018-02-09T10:59:31Z,1518173971,2018,11,0,40.458,40.458,-69.9354,-162.0836,980.0,0.0,-999.0,yes,yes,no,300234063898840,BD2GI,AOML,ARAON,South
2018-02-09T12:00:00Z,1518177600,2018,12,0,40.5,40.5,-69.9314,-162.068,980.8,0.0,-999.0,yes,yes,no,300234063898840,BD2GI,AOML,ARAON,South
2018-02-09T13:00:28Z,1518181229,2018,13,0,40.542,40.542,-69.928,-162.0704,981.6,0.0,-999.0,yes,yes,no,300234063898840,BD2GI,AOML,ARAON,South
2018-02-09T13:59:31Z,1518184771,2018,14,0,40.583,40.583,-69.9236,-162.068,982.4,0.0,-999.0,yes,yes,no,300234063898840,BD2GI,AOML,ARAON,South
2018-02-09T15:00:00Z,1518188400,2018,15,0,40.625,40.625,-69.9202,-162.069,983.3,0.0,-999.0,yes,yes,no,300234063898840,BD2GI,AOML,ARAON,South
2018-02-09T16:00:28Z,1518192029,2018,16,0,40.667,40.667,-69.9156,-162.0702,984.3,0.0,-999.0,yes,yes,no,300234063898840,BD2GI,AOML,ARAON,South
2018-02-09T16:59:31Z,1518195571,2018,17,0,40.708,40.708,-69.9122,-162.0742,984.9,0.0,-999.0,yes,yes,no,300234063898840,BD2GI,AOML,ARAON,South
2018-02-09T18:00:00Z,1518199200,2018,18,0,40.75,40.75,-69.911,-162.0792,985.7,0.0,-999.0,yes,yes,no,300234063898840,BD2GI,AOML,ARAON,South
2018-02-09T19:00:28Z,1518202829,2018,19,0,40.792,40.792,-69.9106,-162.085,986.5,0.0,-999.0,yes,yes,no,300234063898840,BD2GI,AOML,ARAON,South
2018-02-09T19:59:31Z,1518206371,2018,20,0,40.833,40.833,-69.9118,-162.089,987.0,0.04,-999.0,yes,yes,no,300234063898840,BD2GI,AOML,ARAON,South
2018-02-09T21:00:00Z,1518210000,2018,21,0,40.875,40.875,-69.9136,-162.09,987.7,0.04,-999.0,yes,yes,no,300234063898840,BD2GI,AOML,ARAON,South
2018-02-09T22:00:28Z,1518213629,2018,22,0,40.917,40.917,-69.9156,-162.0864,988.1,0.11,-999.0,yes,yes,no,300234063898840,BD2GI,AOML,ARAON,South
2018-02-09T22:59:31Z,1518217171,2018,23,0,40.958,40.958,-69.9172,-162.0774,988.6,0.11,-999.0,yes,yes,no,300234063898840,BD2GI,AOML,ARAON,South
2018-02-10T00:00:00Z,1518220800,2018,0,0,41.0,41.0,-69.9176,-162.0674,989.0,0.11,-999.0,yes,yes,no,300234063898840,BD2GI,AOML,ARAON,South
2018-02-10T01:00:28Z,1518224429,2018,1,0,41.042,41.042,-69.9172,-162.057,989.0,0.11,-999.0,yes,yes,no,300234063898840,BD2GI,AOML,ARAON,South
2018-02-10T01:59:31Z,1518227971,2018,2,0,41.083,41.083,-69.9156,-162.0486,989.0,0.11,-999.0,yes,yes,no,300234063898840,BD2GI,AOML,ARAON,South
2018-02-10T03:00:00Z,1518231600,2018,3,0,41.125,41.125,-69.913,-162.0412,989.1,0.11,-999.0,yes,yes,no,300234063898840,BD2GI,AOML,ARAON,South
2018-02-10T04:00:28Z,1518235229,2018,4,0,41.167,41.167,-69.91,-162.0368,989.1,0.11,-999.0,yes,yes,no,300234063898840,BD2GI,AOML,ARAON,South
2018-02-10T04:59:31Z,1518238771,2018,5,0,41.208,41.208,-69.907,-162.0346,989.2,0.11,-999.0,yes,yes,no,300234063898840,BD2GI,AOML,ARAON,South
2018-02-10T06:00:00Z,1518242400,2018,6,0,41.25,41.25,-69.905,-162.0378,989.0,0.11,-999.0,yes,yes,no,300234063898840,BD2GI,AOML,ARAON,South
2018-02-10T07:00:28Z,1518246029,2018,7,0,41.292,41.292,-69.9042,-162.0412,989.0,0.11,-999.0,yes,yes,no,300234063898840,BD2GI,AOML,ARAON,South
2018-02-10T07:59:31Z,1518249571,2018,8,0,41.333,41.333,-69.9046,-162.0466,988.8,0.11,-999.0,yes,yes,no,300234063898840,BD2GI,AOML,ARAON,South
2018-02-10T09:00:00Z,1518253200,2018,9,0,41.375,41.375,-69.906,-162.0514,988.4,0.11,-999.0,yes,yes,no,300234063898840,BD2GI,AOML,ARAON,South
2018-02-10T10:00:28Z,1518256829,2018,10,0,41.417,41.417,-69.9082,-162.0518,987.5,0.11,-999.0,yes,yes,no,300234063898840,BD2GI,AOML,ARAON,South
2018-02-10T10:59:31Z,1518260371,2018,11,0,41.458,41.458,-69.9106,-162.0478,986.8,0.11,-999.0,yes,yes,no,300234063898840,BD2GI,AOML,ARAON,South
2018-02-10T12:00:00Z,1518264000,2018,12,0,41.5,41.5,-69.9142,-162.0394,985.9,0.11,-999.0,yes,yes,no,300234063898840,BD2GI,AOML,ARAON,South
2018-02-10T13:00:28Z,1518267629,2018,13,0,41.542,41.542,-69.9172,-162.032,984.8,0.11,-999.0,yes,yes,no,300234063898840,BD2GI,AOML,ARAON,South
2018-02-10T13:59:31Z,1518271171,2018,14,0,41.583,41.583,-69.9196,-162.018,983.9,0.11,-999.0,yes,yes,no,300234063898840,BD2GI,AOML,ARAON,South
2018-02-10T15:00:00Z,1518274800,2018,15,0,41.625,41.625,-69.9216,-162.0044,983.4,0.11,-999.0,yes,yes,no,300234063898840,BD2GI,AOML,ARAON,South
2018-02-10T16:00:28Z,1518278429,2018,16,0,41.667,41.667,-69.9212,-161.9904,983.5,0.11,-999.0,yes,yes,no,300234063898840,BD2GI,AOML,ARAON,South
2018-02-10T16:59:31Z,1518281971,2018,17,0,41.708,41.708,-69.9188,-161.9758,983.8,0.11,-999.0,yes,yes,no,300234063898840,BD2GI,AOML,ARAON,South
2018-02-10T18:00:00Z,1518285600,2018,18,0,41.75,41.75,-69.9144,-161.9658,984.4,0.11,-999.0,yes,yes,no,300234063898840,BD2GI,AOML,ARAON,South
2018-02-10T19:00:28Z,1518289229,2018,19,0,41.792,41.792,-69.91,-161.9586,984.8,0.11,-999.0,yes,yes,no,300234063898840,BD2GI,AOML,ARAON,South
2018-02-10T19:59:31Z,1518292771,2018,20,0,41.833,41.833,-69.9058,-161.9594,985.4,0.11,-999.0,yes,yes,no,300234063898840,BD2GI,AOML,ARAON,South
2018-02-10T21:00:00Z,1518296400,2018,21,0,41.875,41.875,-69.9024,-161.966,986.1,0.11,-999.0,yes,yes,no,300234063898840,BD2GI,AOML,ARAON,South
2018-02-10T22:00:28Z,1518300029,2018,22,0,41.917,41.917,-69.9006,-161.9728,986.6,0.11,-999.0,yes,yes,no,300234063898840,BD2GI,AOML,ARAON,South
2018-02-10T22:59:31Z,1518303571,2018,23,0,41.958,41.958,-69.9,-161.9796,986.8,0.14,-999.0,yes,yes,no,300234063898840,BD2GI,AOML,ARAON,South
2018-02-11T00:00:00Z,1518307200,2018,0,0,42.0,42.0,-69.9022,-161.9866,986.7,0.14,-999.0,yes,yes,no,300234063898840,BD2GI,AOML,ARAON,South
2018-02-11T01:00:28Z,1518310829,2018,1,0,42.042,42.042,-69.905,-161.9874,986.8,0.14,-999.0,yes,yes,no,300234063898840,BD2GI,AOML,ARAON,South
2018-02-11T01:59:31Z,1518314371,2018,2,0,42.083,42.083,-69.9076,-161.9832,986.1,0.14,-999.0,yes,yes,no,300234063898840,BD2GI,AOML,ARAON,South
2018-02-11T03:00:00Z,1518318000,2018,3,0,42.125,42.125,-69.9108,-161.974,985.3,0.14,-999.0,yes,yes,no,300234063898840,BD2GI,AOML,ARAON,South
2018-02-11T04:00:28Z,1518321629,2018,4,0,42.167,42.167,-69.9134,-161.9616,984.1,0.14,-999.0,yes,yes,no,300234063898840,BD2GI,AOML,ARAON,South
2018-02-11T04:59:31Z,1518325171,2018,5,0,42.208,42.208,-69.9122,-161.9484,982.8,0.14,-999.0,yes,yes,no,300234063898840,BD2GI,AOML,ARAON,South
2018-02-11T06:00:00Z,1518328800,2018,6,0,42.25,42.25,-69.9098,-161.94,981.2,0.14,-999.0,yes,yes,no,300234063898840,BD2GI,AOML,ARAON,South
2018-02-11T07:00:28Z,1518332429,2018,7,0,42.292,42.292,-69.908,-161.9358,979.3,0.14,-999.0,yes,yes,no,300234063898840,BD2GI,AOML,ARAON,South
2018-02-11T07:59:31Z,1518335971,2018,8,0,42.333,42.333,-69.9056,-161.9352,977.3,0.14,-999.0,yes,yes,no,300234063898840,BD2GI,AOML,ARAON,South
2018-02-11T09:00:00Z,1518339600,2018,9,0,42.375,42.375,-69.9044,-161.937,975.0,0.14,-999.0,yes,yes,no,300234063898840,BD2GI,AOML,ARAON,South
2018-02-11T10:00:28Z,1518343229,2018,10,0,42.417,42.417,-69.904,-161.9404,972.7,0.14,-999.0,yes,yes,no,300234063898840,BD2GI,AOML,ARAON,South
2018-02-11T10:59:31Z,1518346771,2018,11,0,42.458,42.458,-69.9054,-161.9446,970.8,0.11,-999.0,yes,yes,no,300234063898840,BD2GI,AOML,ARAON,South
2018-02-11T12:00:00Z,1518350400,2018,12,0,42.5,42.5,-69.9084,-161.9422,969.4,0.11,-999.0,yes,yes,no,300234063898840,BD2GI,AOML,ARAON,South
2018-02-11T13:00:28Z,1518354029,2018,13,0,42.542,42.542,-69.911,-161.9338,968.0,0.11,-999.0,yes,yes,no,300234063898840,BD2GI,AOML,ARAON,South
2018-02-11T13:59:31Z,1518357571,2018,14,0,42.583,42.583,-69.9122,-161.92,966.5,0.11,-999.0,yes,yes,no,300234063898840,BD2GI,AOML,ARAON,South
2018-02-11T15:00:00Z,1518361200,2018,15,0,42.625,42.625,-69.9112,-161.9054,965.5,0.11,-999.0,yes,yes,no,300234063898840,BD2GI,AOML,ARAON,South
2018-02-11T16:00:28Z,1518364829,2018,16,0,42.667,42.667,-69.9104,-161.891,965.1,0.11,-999.0,yes,yes,no,300234063898840,BD2GI,AOML,ARAON,South
2018-02-11T16:59:31Z,1518368371,2018,17,0,42.708,42.708,-69.908,-161.8778,964.9,0.11,-999.0,yes,yes,no,300234063898840,BD2GI,AOML,ARAON,South
2018-02-11T18:00:00Z,1518372000,2018,18,0,42.75,42.75,-69.9034,-161.8674,965.0,0.11,-999.0,yes,yes,no,300234063898840,BD2GI,AOML,ARAON,South
2018-02-11T19:00:28Z,1518375629,2018,19,0,42.792,42.792,-69.8966,-161.8598,966.4,0.11,-999.0,yes,yes,no,300234063898840,BD2GI,AOML,ARAON,South
2018-02-11T19:59:31Z,1518379171,2018,20,0,42.833,42.833,-69.8872,-161.8498,967.5,0.07,-999.0,yes,yes,no,300234063898840,BD2GI,AOML,ARAON,South
2018-02-11T21:00:00Z,1518382800,2018,21,0,42.875,42.875,-69.8758,-161.8378,968.4,0.0,-999.0,yes,yes,no,300234063898840,BD2GI,AOML,ARAON,South
2018-02-11T22:00:28Z,1518386429,2018,22,0,42.917,42.917,-69.8626,-161.8322,968.4,-0.03,-999.0,yes,yes,no,300234063898840,BD2GI,AOML,ARAON,South
2018-02-11T22:59:31Z,1518389971,2018,23,0,42.958,42.958,-69.8504,-161.8392,968.4,-0.06,-999.0,yes,yes,no,300234063898840,BD2GI,AOML,ARAON,South
2018-02-12T00:00:00Z,1518393600,2018,0,0,43.0,43.0,-69.8388,-161.849,968.3,-0.1,-999.0,yes,yes,no,300234063898840,BD2GI,AOML,ARAON,South
2018-02-12T01:00:28Z,1518397229,2018,1,0,43.042,43.042,-69.8294,-161.8722,968.2,-0.13,-999.0,yes,yes,no,300234063898840,BD2GI,AOML,ARAON,South
2018-02-12T01:59:31Z,1518400771,2018,2,0,43.083,43.083,-69.8238,-161.8996,968.4,-0.17,-999.0,yes,yes,no,300234063898840,BD2GI,AOML,ARAON,South
2018-02-12T03:00:00Z,1518404400,2018,3,0,43.125,43.125,-69.8206,-161.9178,969.1,-0.23,-999.0,yes,yes,no,300234063898840,BD2GI,AOML,ARAON,South
2018-02-12T04:00:28Z,1518408029,2018,4,0,43.167,43.167,-69.819,-161.9312,969.9,-0.27,-999.0,yes,yes,no,300234063898840,BD2GI,AOML,ARAON,South
2018-02-12T04:59:31Z,1518411571,2018,5,0,43.208,43.208,-69.819,-161.9312,970.9,-0.3,-999.0,yes,yes,no,300234063898840,BD2GI,AOML,ARAON,South